Weather History for Poplar Bluff, MO

Change the Weather History Date:

Monday, April 1, 2013

  Actual Average Record
Temperature  
Mean Temperature 52 °F -  
Max Temperature 61 °F 65 °F 89 °F (1940)
Min Temperature 44 °F 42 °F 23 °F (1919)
Degree Days  
Heating Degree Days 12    
Growing Degree Days 2 (Base 50)    
Moisture  
Dew Point 36 °F    
Average Humidity 60    
Maximum Humidity 93    
Minimum Humidity 42    
Precipitation  
Precipitation 0.00 in - - ()
Sea Level Pressure  
Sea Level Pressure 30.10 in    
Wind  
Wind Speed 6 mph (NE)    
Max Wind Speed 14 mph    
Max Gust Speed 22 mph    
Visibility 10 miles    
Events      
Averages and records for this station are not official NWS values.
T = Trace of Precipitation, MM = Missing Value Source: NWS Daily Summary

Daily Weather History Graph

Daily Weather History Graph

Search for Another Location

Airport:

Trip Planner

Search our weather history database for the weather conditions in past years. The results will help you decide how hot, cold, wet, or windy it might be!

Date:

Astronomy

Apr. 01, 2013 Rise Set
Actual Time 6:46 AM CDT 7:23 PM CDT
Civil Twilight 6:20 AM CDT 7:49 PM CDT
Nautical Twilight 5:50 AM CDT 8:20 PM CDT
Astronomical Twilight 5:18 AM CDT 8:52 PM CDT
Moon 12:25 AM CDT (4/1) 10:40 AM CDT (4/1)
Length of Visible Light 13h 29m
Length of Day
12h 37m
Waning Gibbous, 67% of the Moon is Illuminated
Apr 1
Waning Gibbous
Apr 2
Last Quarter
Apr 10
New
Apr 18
First Quarter
Apr 25
Full

Hourly Weather History & Observations

Time (CDT) Temp. Windchill Dew Point Humidity Pressure Visibility Wind Dir Wind Speed Gust Speed Precip Events Conditions
12:53 AM 53.1 °F - 46.9 °F 80% 29.92 in 10.0 mi WSW 3.5 mph - N/A   Clear
1:53 AM 48.9 °F - 46.0 °F 90% 29.94 in 10.0 mi Calm Calm - N/A   Clear
2:53 AM 45.0 °F 42.6 °F 43.0 °F 93% 29.95 in 9.0 mi NW 4.6 mph - N/A   Clear
3:53 AM 46.0 °F 42.5 °F 42.1 °F 86% 29.97 in 10.0 mi NW 6.9 mph - N/A   Clear
4:53 AM 44.1 °F 40.8 °F 39.0 °F 82% 29.99 in 10.0 mi North 5.8 mph - N/A   Clear
5:53 AM 48.0 °F - 36.0 °F 63% 30.03 in 10.0 mi NNE 10.4 mph - N/A   Clear
6:53 AM 45.0 °F 42.6 °F 36.0 °F 71% 30.07 in 10.0 mi NE 4.6 mph - N/A   Clear
7:53 AM 46.9 °F - 36.0 °F 66% 30.10 in 10.0 mi NE 9.2 mph - N/A   Mostly Cloudy
8:53 AM 48.9 °F - 34.0 °F 56% 30.11 in 10.0 mi NNE 13.8 mph 21.9 mph N/A   Clear
9:53 AM 50.0 °F - 34.0 °F 54% 30.14 in 10.0 mi North 11.5 mph - N/A   Clear
10:53 AM 53.1 °F - 34.0 °F 48% 30.15 in 10.0 mi NNE 10.4 mph - N/A   Clear
11:53 AM 55.0 °F - 35.1 °F 47% 30.15 in 10.0 mi Variable 4.6 mph - N/A   Clear
12:53 PM 57.0 °F - 36.0 °F 45% 30.14 in 10.0 mi NE 9.2 mph - N/A   Clear
1:53 PM 61.0 °F - 37.9 °F 42% 30.12 in 10.0 mi Variable 6.9 mph - N/A   Mostly Cloudy
2:53 PM 57.9 °F - 37.9 °F 47% 30.12 in 10.0 mi East 6.9 mph - N/A   Overcast
3:53 PM 57.0 °F - 39.0 °F 51% 30.11 in 10.0 mi ESE 6.9 mph - N/A   Overcast
4:53 PM 57.0 °F - 37.9 °F 49% 30.12 in 10.0 mi ENE 6.9 mph - N/A   Mostly Cloudy
5:53 PM 54.0 °F - 36.0 °F 51% 30.13 in 10.0 mi ENE 10.4 mph - N/A   Overcast
6:53 PM 52.0 °F - 35.1 °F 53% 30.15 in 10.0 mi ENE 6.9 mph - N/A   Overcast
7:53 PM 51.1 °F - 33.1 °F 50% 30.14 in 10.0 mi ENE 8.1 mph - N/A   Overcast
8:53 PM 50.0 °F - 30.9 °F 48% 30.16 in 10.0 mi ENE 6.9 mph - N/A   Mostly Cloudy
9:53 PM 48.0 °F - 30.9 °F 52% 30.18 in 10.0 mi NE 6.9 mph - N/A   Mostly Cloudy
10:53 PM 46.0 °F 42.5 °F 30.0 °F 54% 30.19 in 10.0 mi NE 6.9 mph - N/A   Scattered Clouds
11:53 PM 44.1 °F 42.5 °F 28.9 °F 55% 30.21 in 10.0 mi NNE 3.5 mph - N/A   Mostly Cloudy